[[{"header":{"parameterUnit":"m.s-1","parameterCategory":2,"la1":30.2991,"la2":30.254,"lo1":-89.0895,"lo2":-89.0444,"dy":0.0017,"dx":0.0017,"nx":28,"ny":28,"refTime":"2023-07-30T03:00:00:Z","depth":"0","parameterNumber":2,"parameterNumberName":"U-component_of_CURRENTS"},"data":[0,0,0,0,0,0,0,0,0,0,0,0,0,0,0,0,0,0,0,0,0,0,0,0,0,0,0,0,0,0,0,0,0,0,0,0,0,0,0,0,0,0,0,0,0,0,0,0,0,0,0,0,0,0,0,0,0,0,0.0328,0.0328,0,0.0302,0.0302,0.0301,0.0268,0.0268,0.0267,0.0267,0.0202,0.0201,0.02,0,0,0,0,0,0,0,0,0,0,0,0,0,0.0345,0.0345,0.0329,0.0328,0.0328,0.0302,0.0302,0.0301,0.0268,0.0268,0.0267,0.0266,0.0203,0.0201,0.02,0,0,0,0,0,0,0,0,0,0,0,0,0,0.033,0.0345,0.0329,0.0308,0.0306,0.0302,0.0302,0.0301,0.0268,0.0268,0.0267,0.0266,0.0203,0.0201,0.0199,0.0203,0,0,0.0194,0.0193,0,0,0,0,0,0,0,0,0.0331,0.0329,0.0312,0.031,0.0307,0.0288,0.0284,0.0267,0.0269,0.0283,0.0267,0.0266,0.0228,0.0224,0.0221,0.02,0.0198,0.0194,0.0192,0.0192,0.0191,0,0,0,0,0,0,0,0.0332,0.033,0.0318,0.0311,0.0309,0.0299,0.0296,0.0281,0.0259,0.0281,0.0279,0.0276,0.0226,0.0223,0.0219,0.0197,0.0194,0.0192,0.0191,0.019,0.0241,0.0244,0,0,0,0,0,0,0.0337,0.0331,0.0319,0.0317,0.0318,0.0299,0.0296,0.0295,0.026,0.0254,0.0277,0.0275,0.0226,0.0221,0.0217,0.0276,0.0192,0.019,0.0189,0.0239,0.0242,0.0244,0,0,0,0,0,0,0.0337,0.0336,0.032,0.0324,0.0321,0.03,0.0299,0.0295,0.0292,0.0257,0.0251,0.0279,0.0226,0.0219,0.0222,0.0271,0.0189,0.0187,0.0236,0.024,0.0243,0.0359,0,0,0,0,0,0,0.0338,0.0336,0.0338,0.0324,0.0321,0.0328,0.0299,0.0295,0.0292,0.0289,0.0257,0.025,0.0225,0.0225,0.022,0.0267,0.0186,0.0233,0.0238,0.0242,0.0352,0.0366,0.0378,0,0,0,0,0,0.0338,0.0344,0.0338,0.0337,0.0324,0.0329,0.0327,0.0308,0.0293,0.0301,0.0286,0.0251,0.0252,0.0225,0.0219,0.0266,0.023,0.0236,0.0242,0.0346,0.0363,0.0377,0,0,0,0,0,0,0.0349,0.034,0.0334,0.0336,0.0338,0.0323,0.0325,0.0315,0.031,0.0305,0.027,0.0264,0.0289,0.0262,0.0234,0.0298,0.024,0.0245,0.0322,0.0337,0.035,0.039,0.0184,0,0,0,0,0,0.0354,0.0356,0.0351,0.0354,0.0355,0.0342,0.0341,0.0334,0.0326,0.0322,0.0305,0.0297,0.0308,0.0308,0.0303,0.0328,0.042,0.036,0.0373,0.0384,0.0415,0.0596,0.063,0.0263,0.0263,0.0263,0,0,0.0357,0.0354,0.0354,0.0357,0.0352,0.0369,0.034,0.0345,0.037,0.0316,0.0341,0.0335,0.0324,0.0362,0.0372,0.0343,0.055,0.0391,0.0401,0.0426,0.0606,0.0642,0.0674,0.0266,0.0266,0.0265,0,0,0.0372,0.0366,0.0376,0.0385,0.0389,0.0388,0.0394,0.0392,0.0401,0.0422,0.0408,0.0441,0.0426,0.0457,0.0463,0.0547,0.0611,0.0539,0.0638,0.0814,0.0847,0.0877,0.1102,0.1151,0.0548,0.0548,0.0548,0,0.0377,0.0389,0.0382,0.0401,0.0411,0.0402,0.0425,0.0442,0.0446,0.048,0.0442,0.0512,0.0484,0.0582,0.0607,0.0579,0.0712,0.0575,0.0836,0.0867,0.0896,0.1119,0.1171,0.0554,0.0554,0.0553,0.0552,0,0.0406,0.0417,0.0426,0.0449,0.0464,0.0481,0.0503,0.0536,0.0541,0.0566,0.0655,0.0652,0.0713,0.0704,0.0671,0.0858,0.0903,0.0834,0.0803,0.0941,0.1166,0.1219,0.0563,0.0561,0.0559,0.0558,0,0,0.042,0.0439,0.0445,0.0466,0.049,0.051,0.0569,0.0632,0.0719,0.073,0.0865,0.0869,0.0904,0.0918,0.0914,0.1038,0.1347,0.1029,0.1035,0.1268,0.1817,0.1916,0.1983,0.1339,0.1347,0.1354,0.1917,0,0.0446,0.0472,0.0489,0.054,0.0555,0.059,0.0667,0.0731,0.0793,0.093,0.0973,0.1093,0.098,0.106,0.1163,0.1306,0.1482,0.1205,0.1635,0.165,0.1732,0.2044,0.2025,0.2531,0.1969,0.1977,0.1984,0,0.0481,0.0489,0.0517,0.0597,0.0617,0.0665,0.0803,0.0877,0.1054,0.1126,0.125,0.1315,0.1514,0.1397,0.1749,0.1592,0.173,0.1821,0.1844,0.1931,0.1846,0.2289,0.2648,0.2499,0.2065,0.2058,0.2053,0,0.0476,0.0529,0.0546,0.0563,0.0645,0.0706,0.0782,0.0935,0.1076,0.1298,0.1461,0.1639,0.1826,0.1988,0.2156,0.2009,0.2576,0.2394,0.2628,0.2638,0.2704,0.2706,0.2978,0.2692,0.2691,0.2689,0.2688,0,0.0494,0.0522,0.0553,0.0561,0.0686,0.0729,0.0925,0.1029,0.1266,0.15,0.1589,0.1839,0.199,0.2289,0.236,0.2731,0.277,0.2766,0.2826,0.2748,0.2746,0.2674,0.2608,0.271,0.2706,0.2702,0.2698,0,0.0498,0.0496,0.0553,0.0629,0.068,0.0781,0.1036,0.1223,0.1394,0.1726,0.1836,0.2132,0.2517,0.2694,0.3047,0.3073,0.3319,0.3442,0.3373,0.3412,0.3403,0.3345,0.364,0.36,0.3828,0.3835,0.384,0,0.0504,0.0504,0.0605,0.0717,0.0767,0.0935,0.1114,0.1289,0.1506,0.1907,0.211,0.2542,0.2826,0.3407,0.3592,0.3899,0.3654,0.4042,0.371,0.3531,0.351,0.3242,0.3161,0.3883,0.3889,0.3893,0.3896,0,0.0545,0.057,0.0647,0.0859,0.1035,0.1219,0.1454,0.1602,0.1862,0.2102,0.2463,0.2699,0.3272,0.3575,0.3994,0.4147,0.3893,0.4139,0.3982,0.3661,0.3369,0.3312,0.3393,0.3935,0.3931,0.3928,0.3926,0.3924,0.0639,0.0749,0.0891,0.1125,0.1287,0.1486,0.1624,0.1843,0.2101,0.2412,0.2634,0.2949,0.3418,0.398,0.4134,0.4375,0.4212,0.4242,0.4233,0.4005,0.3826,0.4029,0.4573,0.4573,0.4572,0.4572,0.4572,0,0.089,0.1011,0.1194,0.1447,0.1621,0.1657,0.1884,0.1991,0.2203,0.2481,0.2722,0.319,0.36,0.3966,0.4409,0.4395,0.4172,0.4338,0.3905,0.3852,0.4108,0.3952,0.435,0.435,0.435,0.435,0.435,0.435,0.1067,0.1332,0.1445,0.1756,0.1858,0.2031,0.2104,0.2182,0.2336,0.2599,0.2829,0.3033,0.3517,0.4127,0.4361,0.4351,0.4014,0.3973,0.3883,0.3963,0.3944,0.3926,0.3755,0.4105,0.4105,0.3433,0.3429,0.3426]},{"header":{"parameterUnit":"m.s-1","parameterCategory":2,"la1":30.2991,"la2":30.254,"lo1":-89.0895,"lo2":-89.0444,"dy":0.0017,"dx":0.0017,"nx":28,"ny":28,"refTime":"2023-07-30T03:00:00:Z","depth":"0","parameterNumber":3,"parameterNumberName":"V-component_of_CURRENTS"},"data":[0,0,0,0,0,0,0,0,0,0,0,0,0,0,0,0,0,0,0,0,0,0,0,0,0,0,0,0,0,0,0,0,0,0,0,0,0,0,0,0,0,0,0,0,0,0,0,0,0,0,0,0,0,0,0,0,0,0,-0.0992,-0.0993,0,-0.1089,-0.109,-0.1091,-0.1143,-0.1143,-0.1144,-0.1144,-0.1185,-0.1186,-0.1187,0,0,0,0,0,0,0,0,0,0,0,0,0,-0.0895,-0.0896,-0.0992,-0.0993,-0.0994,-0.1089,-0.109,-0.1092,-0.1143,-0.1143,-0.1144,-0.1144,-0.1184,-0.1186,-0.1187,0,0,0,0,0,0,0,0,0,0,0,0,0,-0.0958,-0.0897,-0.0991,-0.1032,-0.1037,-0.1089,-0.109,-0.1092,-0.1143,-0.1143,-0.1144,-0.1144,-0.1184,-0.1185,-0.1187,-0.119,0,0,-0.1191,-0.1192,0,0,0,0,0,0,0,0,-0.0955,-0.0962,-0.1025,-0.1029,-0.1035,-0.1105,-0.1072,-0.1122,-0.1143,-0.1102,-0.1144,-0.1144,-0.1153,-0.1157,-0.1174,-0.1192,-0.1193,-0.1191,-0.1192,-0.1193,-0.1193,0,0,0,0,0,0,0,-0.095,-0.0958,-0.1029,-0.1026,-0.1032,-0.1061,-0.107,-0.1082,-0.1123,-0.1105,-0.111,-0.1122,-0.1156,-0.1173,-0.1176,-0.1194,-0.1191,-0.1192,-0.1193,-0.1194,-0.1194,-0.1194,0,0,0,0,0,0,-0.0938,-0.0954,-0.1026,-0.1032,-0.0996,-0.1062,-0.1072,-0.1081,-0.1124,-0.1132,-0.1122,-0.1124,-0.117,-0.1174,-0.1177,-0.1163,-0.1193,-0.1194,-0.1195,-0.1195,-0.1194,-0.1193,0,0,0,0,0,0,-0.0935,-0.0943,-0.1022,-0.0996,-0.1008,-0.1064,-0.1074,-0.1083,-0.1104,-0.1137,-0.1144,-0.1133,-0.1171,-0.1175,-0.1195,-0.1166,-0.1194,-0.1196,-0.1196,-0.1195,-0.1194,-0.1147,0,0,0,0,0,0,-0.0932,-0.0941,-0.0944,-0.0995,-0.1009,-0.105,-0.1074,-0.1085,-0.1112,-0.1116,-0.1149,-0.1153,-0.1171,-0.1193,-0.1197,-0.1168,-0.1197,-0.1197,-0.1196,-0.1194,-0.115,-0.1145,-0.114,0,0,0,0,0,-0.0928,-0.0932,-0.0943,-0.0952,-0.1011,-0.105,-0.1059,-0.1099,-0.1112,-0.1119,-0.1147,-0.1152,-0.1185,-0.1195,-0.1199,-0.117,-0.1198,-0.1196,-0.1194,-0.1152,-0.1146,-0.114,0,0,0,0,0,0,-0.0894,-0.0939,-0.0952,-0.097,-0.1004,-0.1059,-0.1076,-0.1097,-0.1126,-0.1131,-0.1157,-0.1163,-0.1166,-0.1177,-0.1187,-0.1164,-0.1186,-0.1185,-0.1152,-0.1146,-0.1142,-0.1062,-0.1198,0,0,0,0,0,-0.0885,-0.09,-0.0945,-0.0959,-0.0977,-0.1024,-0.1045,-0.1069,-0.1104,-0.1118,-0.1141,-0.1157,-0.1161,-0.1163,-0.1178,-0.1172,-0.1104,-0.115,-0.1146,-0.1141,-0.1079,-0.0962,-0.0939,-0.1187,-0.1187,-0.1188,0,0,-0.0877,-0.0904,-0.0912,-0.0953,-0.0986,-0.0997,-0.1037,-0.1069,-0.1064,-0.1115,-0.1121,-0.1148,-0.1159,-0.1155,-0.1154,-0.116,-0.1042,-0.1139,-0.1135,-0.1073,-0.0957,-0.0932,-0.091,-0.1186,-0.1186,-0.1187,0,0,-0.0869,-0.0892,-0.0902,-0.092,-0.0964,-0.0986,-0.0991,-0.1042,-0.1051,-0.107,-0.1092,-0.1095,-0.1126,-0.111,-0.1108,-0.108,-0.1027,-0.1092,-0.0995,-0.0884,-0.0861,-0.084,-0.0744,-0.0714,-0.1082,-0.1082,-0.1082,0,-0.0854,-0.0859,-0.091,-0.0918,-0.0903,-0.0974,-0.0951,-0.0986,-0.1032,-0.0981,-0.1064,-0.1026,-0.109,-0.0999,-0.1022,-0.1063,-0.0987,-0.1022,-0.0872,-0.085,-0.0829,-0.0735,-0.0703,-0.108,-0.108,-0.108,-0.1081,0,-0.0852,-0.0842,-0.085,-0.0865,-0.0864,-0.0861,-0.0894,-0.0884,-0.0908,-0.0907,-0.0845,-0.0925,-0.086,-0.0922,-0.0985,-0.0854,-0.0846,-0.0886,-0.0878,-0.08,-0.0708,-0.0675,-0.1076,-0.1077,-0.1078,-0.1078,0,0,-0.0829,-0.0837,-0.0836,-0.077,-0.0814,-0.0779,-0.077,-0.071,-0.059,-0.0695,-0.053,-0.0648,-0.064,-0.0635,-0.0696,-0.0662,-0.0532,-0.0715,-0.071,-0.0601,-0.0263,-0.0278,-0.0244,-0.0533,-0.0526,-0.0521,-0.0266,0,-0.0792,-0.0743,-0.0767,-0.0668,-0.0617,-0.062,-0.055,-0.0503,-0.0478,-0.0351,-0.0416,-0.0317,-0.0542,-0.0476,-0.0487,-0.0492,-0.0438,-0.0596,-0.0367,-0.036,-0.0367,-0.0203,-0.0217,0.001,-0.0233,-0.0228,-0.0224,0,-0.077,-0.0714,-0.0614,-0.0446,-0.0415,-0.035,-0.0136,-0.0085,0.0033,0.007,0.0124,0.0089,0.0121,-0.0079,-0.0034,-0.0113,-0.0166,-0.0217,-0.0208,-0.0195,-0.031,-0.0104,0.0079,-0.0222,-0.0173,-0.0177,-0.0181,0,-0.0666,-0.058,-0.0455,-0.0421,-0.0286,-0.0161,-0.0058,0.008,0.0225,0.0386,0.0519,0.0523,0.0591,0.0511,0.0314,0.0199,0.038,0.0223,0.0171,0.0168,0.0221,0.0212,0.0167,0.0316,0.0316,0.0315,0.0314,0,-0.0593,-0.0481,-0.0363,-0.0283,-0.0013,0.0028,0.0336,0.0433,0.0637,0.087,0.0781,0.0953,0.0744,0.0762,0.0542,0.0487,0.0581,0.0272,0.027,0.0228,0.0218,0.0005,-0.0178,0.0324,0.0322,0.032,0.0319,0,-0.0492,-0.0465,-0.0249,-0.0043,0.0039,0.0268,0.0572,0.0812,0.0948,0.1254,0.1325,0.1364,0.1384,0.1167,0.1085,0.0839,0.0617,0.0699,0.0646,0.0631,0.0242,0.0063,0.0202,0.0035,0.0722,0.0724,0.0726,0,-0.0437,-0.0332,-0.0047,0.0121,0.0236,0.0539,0.0769,0.0966,0.12,0.1496,0.1672,0.1772,0.1839,0.1713,0.1344,0.1099,0.0766,0.0906,0.0648,0.0302,0.0102,0.0018,-0.0144,0.0729,0.0731,0.0732,0.0733,0,-0.0237,-0.0131,0.0075,0.0385,0.0659,0.0949,0.1262,0.145,0.17,0.1911,0.2169,0.225,0.2133,0.1868,0.1525,0.1302,0.0696,0.0919,0.0611,0.0181,0.0054,-0.0138,0.0445,0.0743,0.0742,0.0741,0.0741,0.074,-0.002,0.0192,0.0457,0.0762,0.1026,0.1326,0.1553,0.1814,0.2133,0.2399,0.2476,0.2608,0.2259,0.1779,0.1442,0.0798,0.0767,0.0518,0.0361,0.0334,0.0083,0.0678,0.0916,0.0916,0.0916,0.0916,0.0916,0,0.0327,0.0514,0.0808,0.118,0.145,0.1525,0.1872,0.2044,0.233,0.2568,0.2731,0.2694,0.216,0.1623,0.0806,0.03,0.0082,0.0015,-0.0158,-0.0286,0.0312,0.0206,0.0242,0.0242,0.0242,0.0243,0.0243,0.0243,0.0544,0.0906,0.1043,0.1511,0.1696,0.2022,0.2179,0.2353,0.2523,0.2767,0.2893,0.301,0.2645,0.1117,0.0001,-0.026,-0.0718,-0.0699,-0.0959,-0.0664,-0.0633,-0.0603,-0.0748,-0.0913,-0.0915,-0.1514,-0.1521,-0.1526]}],[{"header":{"parameterUnit":"m.s-1","parameterCategory":2,"la1":30.2991,"la2":30.254,"lo1":-89.0895,"lo2":-89.0444,"dy":0.0017,"dx":0.0017,"nx":28,"ny":28,"refTime":"2023-07-30T03:00:00:Z","depth":"2","parameterNumber":2,"parameterNumberName":"U-component_of_CURRENTS"},"data":[0,0,0,0,0,0,0,0,0,0,0,0,0,0,0,0,0,0,0,0,0,0,0,0,0,0,0,0,0,0,0,0,0,0,0,0,0,0,0,0,0,0,0,0,0,0,0,0,0,0,0,0,0,0,0,0,0,0,0.0992,0.0992,0,0.1019,0.1019,0.102,0.0999,0.0999,0.0998,0.0997,0.1003,0.1004,0.1005,0,0,0,0,0,0,0,0,0,0,0,0,0,0.0924,0.0925,0.0992,0.0992,0.0992,0.1019,0.1019,0.102,0.1,0.0999,0.0998,0.0997,0.1003,0.1004,0.1005,0,0,0,0,0,0,0,0,0,0,0,0,0,0.0952,0.0926,0.0991,0.0986,0.0986,0.1019,0.1019,0.102,0.1,0.0999,0.0997,0.0996,0.1003,0.1004,0.1005,0.1038,0,0,0.101,0.101,0,0,0,0,0,0,0,0,0.095,0.0954,0.0987,0.0987,0.0987,0.1005,0.0998,0.1025,0.1,0.0994,0.0997,0.0996,0.1004,0.1005,0.1012,0.1038,0.1038,0.101,0.101,0.1011,0.1011,0,0,0,0,0,0,0,0.0948,0.0953,0.1001,0.0987,0.0987,0.0984,0.0986,0.1003,0.1004,0.0994,0.0993,0.0998,0.1003,0.101,0.1011,0.1038,0.101,0.1011,0.1012,0.1012,0.1115,0.1116,0,0,0,0,0,0,0.0949,0.0951,0.1001,0.1002,0.0966,0.0986,0.0989,0.1,0.1004,0.1004,0.0999,0.0997,0.1009,0.101,0.1012,0.1067,0.1011,0.1012,0.1013,0.1113,0.1115,0.1117,0,0,0,0,0,0,0.0947,0.0953,0.0999,0.0978,0.0983,0.0988,0.1001,0.1001,0.1011,0.1008,0.1007,0.1009,0.1008,0.101,0.1041,0.1067,0.1013,0.1014,0.111,0.1113,0.1116,0.1168,0,0,0,0,0,0,0.0945,0.0952,0.0963,0.0978,0.0985,0.1034,0.1002,0.1002,0.1016,0.1014,0.1017,0.1016,0.1007,0.1039,0.1042,0.1068,0.1015,0.1108,0.1112,0.1115,0.1164,0.1172,0.1179,0,0,0,0,0,0.0943,0.0969,0.0964,0.097,0.0999,0.1036,0.104,0.1038,0.1018,0.1038,0.1037,0.1016,0.1063,0.1042,0.1045,0.1071,0.1106,0.1111,0.1115,0.116,0.1171,0.1179,0,0,0,0,0,0,0.0945,0.097,0.0964,0.0996,0.1019,0.1033,0.1052,0.1046,0.1062,0.1056,0.1042,0.1043,0.1081,0.1075,0.1052,0.1114,0.1081,0.1086,0.1115,0.1124,0.1132,0.1111,0.1016,0,0,0,0,0,0.0951,0.0978,0.0997,0.1024,0.1037,0.1044,0.1057,0.1059,0.1072,0.1077,0.108,0.1086,0.1103,0.1111,0.1128,0.1163,0.1177,0.1184,0.1191,0.1198,0.1185,0.1245,0.1257,0.1131,0.1131,0.1131,0,0,0.0958,0.0976,0.099,0.1027,0.1041,0.1063,0.105,0.1081,0.1093,0.1077,0.1102,0.1117,0.1121,0.116,0.1176,0.1156,0.1248,0.1203,0.1209,0.1192,0.1251,0.1263,0.1273,0.1134,0.1134,0.1133,0,0,0.0987,0.1005,0.1032,0.1053,0.1083,0.109,0.1101,0.1125,0.1132,0.1167,0.1156,0.118,0.1214,0.1215,0.1219,0.1281,0.129,0.13,0.1317,0.1377,0.1387,0.1396,0.1454,0.1468,0.13,0.13,0.13,0,0.099,0.1022,0.1047,0.1074,0.1083,0.1101,0.1119,0.1141,0.1171,0.1186,0.1183,0.1238,0.1233,0.127,0.1284,0.1295,0.1339,0.1279,0.1386,0.1395,0.1404,0.1461,0.1475,0.1303,0.1302,0.1302,0.1302,0,0.1033,0.1053,0.1075,0.1105,0.1125,0.1152,0.1174,0.1203,0.1214,0.1233,0.1288,0.13,0.1328,0.1339,0.1323,0.1385,0.1402,0.1393,0.1358,0.1419,0.1476,0.149,0.1307,0.1306,0.1305,0.1304,0,0,0.1048,0.1091,0.1097,0.109,0.1137,0.1145,0.1191,0.1227,0.1248,0.13,0.1338,0.1367,0.1387,0.1392,0.1396,0.1431,0.1524,0.1438,0.1439,0.1487,0.1677,0.1632,0.1643,0.1551,0.1553,0.1555,0.1701,0,0.1065,0.1084,0.1121,0.1132,0.1128,0.1167,0.1197,0.1236,0.1281,0.1334,0.1373,0.1415,0.1407,0.1425,0.1469,0.1511,0.1561,0.1485,0.1616,0.1619,0.1565,0.1657,0.15,0.1612,0.1715,0.1717,0.1719,0,0.109,0.1086,0.1087,0.1099,0.1107,0.1124,0.116,0.1199,0.1292,0.1334,0.141,0.1457,0.1524,0.1503,0.1628,0.1593,0.1635,0.1664,0.1671,0.1611,0.16,0.1564,0.1633,0.1742,0.1741,0.1739,0.1737,0,0.1028,0.1066,0.1046,0.1051,0.1076,0.1088,0.1115,0.1191,0.125,0.134,0.1413,0.1501,0.1567,0.164,0.1712,0.1689,0.185,0.1827,0.183,0.1828,0.1704,0.1687,0.1911,0.1911,0.191,0.191,0.191,0,0.1008,0.0992,0.1009,0.0982,0.0992,0.1021,0.107,0.1118,0.1228,0.1318,0.1408,0.1503,0.1609,0.1722,0.1759,0.1853,0.1903,0.1848,0.1867,0.1721,0.1704,0.1809,0.1795,0.1915,0.1914,0.1913,0.1912,0,0.0934,0.0947,0.0927,0.0939,0.0956,0.0954,0.1064,0.1118,0.1208,0.1337,0.1379,0.1548,0.1682,0.1784,0.1907,0.192,0.1989,0.2,0.1819,0.1813,0.192,0.1907,0.2037,0.2037,0.2036,0.2036,0.2036,0,0.0883,0.0865,0.0887,0.0915,0.0925,0.0956,0.101,0.1096,0.1173,0.1365,0.1431,0.1603,0.1716,0.1892,0.1912,0.1988,0.2023,0.1896,0.1798,0.1929,0.1935,0.1923,0.1911,0.1675,0.1672,0.167,0.1668,0,0.0816,0.084,0.085,0.0885,0.093,0.0977,0.1047,0.1099,0.1221,0.1324,0.1469,0.1568,0.1734,0.1759,0.185,0.1853,0.1867,0.1847,0.2063,0.1652,0.1596,0.1599,0.1598,0.1645,0.1647,0.1649,0.165,0.1651,0.0804,0.0829,0.0871,0.0897,0.095,0.0977,0.1005,0.1093,0.1176,0.1313,0.1427,0.1538,0.1597,0.1658,0.1657,0.1658,0.1755,0.1705,0.171,0.1719,0.1635,0.1579,0.1611,0.1613,0.1615,0.1617,0.1618,0,0.0839,0.087,0.0893,0.0929,0.0946,0.0977,0.1034,0.1052,0.1115,0.1248,0.1354,0.13,0.1363,0.1445,0.1412,0.1428,0.1372,0.1393,0.1321,0.1344,0.1365,0.1259,0.1139,0.1137,0.1136,0.1135,0,0,0.0858,0.0907,0.09,0.0903,0.0931,0.0949,0.0963,0.0989,0.1052,0.108,0.1146,0.1298,0.1386,0.1241,0.1228,0.12,0.1251,0.1145,0.1525,0.146,0.1479,0.1539,0.1403,0,0,0,0,0]},{"header":{"parameterUnit":"m.s-1","parameterCategory":2,"la1":30.2991,"la2":30.254,"lo1":-89.0895,"lo2":-89.0444,"dy":0.0017,"dx":0.0017,"nx":28,"ny":28,"refTime":"2023-07-30T03:00:00:Z","depth":"2","parameterNumber":3,"parameterNumberName":"V-component_of_CURRENTS"},"data":[0,0,0,0,0,0,0,0,0,0,0,0,0,0,0,0,0,0,0,0,0,0,0,0,0,0,0,0,0,0,0,0,0,0,0,0,0,0,0,0,0,0,0,0,0,0,0,0,0,0,0,0,0,0,0,0,0,0,-0.0389,-0.0389,0,-0.0378,-0.0378,-0.0377,-0.0387,-0.0387,-0.0387,-0.0388,-0.0323,-0.0321,-0.0319,0,0,0,0,0,0,0,0,0,0,0,0,0,-0.0408,-0.0408,-0.0389,-0.0389,-0.0389,-0.0378,-0.0378,-0.0377,-0.0387,-0.0387,-0.0388,-0.0388,-0.0324,-0.0322,-0.0319,0,0,0,0,0,0,0,0,0,0,0,0,0,-0.0399,-0.0408,-0.0389,-0.0392,-0.0392,-0.0378,-0.0378,-0.0377,-0.0386,-0.0387,-0.0388,-0.0388,-0.0325,-0.0322,-0.0319,-0.0288,0,0,-0.0309,-0.0308,0,0,0,0,0,0,0,0,-0.0399,-0.0398,-0.0392,-0.0392,-0.0392,-0.0384,-0.0361,-0.0345,-0.0386,-0.0389,-0.0388,-0.0388,-0.0338,-0.0334,-0.0331,-0.0285,-0.0282,-0.0309,-0.0307,-0.0306,-0.0305,0,0,0,0,0,0,0,-0.04,-0.0398,-0.0384,-0.0391,-0.0392,-0.039,-0.039,-0.0358,-0.0359,-0.0388,-0.0389,-0.0388,-0.0338,-0.0335,-0.033,-0.0281,-0.0309,-0.0306,-0.0304,-0.0303,-0.0231,-0.0231,0,0,0,0,0,0,-0.0401,-0.0399,-0.0385,-0.0384,-0.0397,-0.039,-0.0389,-0.0386,-0.0361,-0.0358,-0.0387,-0.0388,-0.034,-0.0334,-0.0328,-0.0304,-0.0306,-0.0303,-0.0301,-0.0231,-0.0231,-0.0231,0,0,0,0,0,0,-0.0401,-0.04,-0.0385,-0.0391,-0.039,-0.0389,-0.0385,-0.0385,-0.0382,-0.036,-0.0357,-0.0384,-0.034,-0.0332,-0.0309,-0.0301,-0.0301,-0.0299,-0.0231,-0.0231,-0.0231,-0.0246,0,0,0,0,0,0,-0.0402,-0.04,-0.0396,-0.0391,-0.0389,-0.0371,-0.0385,-0.0385,-0.038,-0.0382,-0.0356,-0.0351,-0.034,-0.0314,-0.0306,-0.0296,-0.0296,-0.0231,-0.0231,-0.0231,-0.0246,-0.0247,-0.0247,0,0,0,0,0,-0.0403,-0.0382,-0.0395,-0.0394,-0.0384,-0.037,-0.0369,-0.037,-0.038,-0.0371,-0.0367,-0.0352,-0.0308,-0.0311,-0.0302,-0.0291,-0.0231,-0.0231,-0.0231,-0.0245,-0.0246,-0.0247,0,0,0,0,0,0,-0.0372,-0.0381,-0.0396,-0.0376,-0.0376,-0.0372,-0.0359,-0.0368,-0.0358,-0.0358,-0.0347,-0.0341,-0.032,-0.0302,-0.0307,-0.0272,-0.0268,-0.0266,-0.0282,-0.0283,-0.0283,-0.0288,-0.0294,0,0,0,0,0,-0.0369,-0.0366,-0.0372,-0.0356,-0.0356,-0.0362,-0.0356,-0.036,-0.0353,-0.035,-0.0336,-0.0323,-0.0311,-0.0296,-0.0279,-0.0251,-0.0262,-0.024,-0.024,-0.0241,-0.0239,-0.0262,-0.0266,-0.0231,-0.0231,-0.0231,0,0,-0.0351,-0.0356,-0.0352,-0.0352,-0.0352,-0.0346,-0.0359,-0.0346,-0.0345,-0.0341,-0.0326,-0.0321,-0.0306,-0.0287,-0.0275,-0.027,-0.0258,-0.0241,-0.0242,-0.0239,-0.0263,-0.0266,-0.0269,-0.0231,-0.0231,-0.0231,0,0,-0.0314,-0.0321,-0.0311,-0.0315,-0.0319,-0.0324,-0.0322,-0.0321,-0.0324,-0.0311,-0.0318,-0.0317,-0.0279,-0.0282,-0.0276,-0.0268,-0.0266,-0.0253,-0.0253,-0.0276,-0.0279,-0.0282,-0.031,-0.0316,-0.025,-0.025,-0.025,0,-0.0292,-0.0286,-0.0302,-0.0297,-0.0292,-0.0315,-0.0299,-0.0307,-0.0301,-0.0288,-0.0304,-0.0281,-0.0282,-0.0267,-0.0281,-0.027,-0.0282,-0.0252,-0.0278,-0.0282,-0.0284,-0.0312,-0.0318,-0.025,-0.025,-0.025,-0.025,0,-0.0258,-0.0255,-0.0243,-0.0255,-0.0251,-0.0237,-0.0255,-0.0248,-0.0256,-0.026,-0.0248,-0.0267,-0.0241,-0.0259,-0.0272,-0.0283,-0.0286,-0.0282,-0.0279,-0.0289,-0.0318,-0.0323,-0.0251,-0.0251,-0.0251,-0.0251,0,0,-0.0201,-0.0217,-0.0216,-0.0207,-0.0227,-0.0207,-0.0209,-0.0199,-0.0173,-0.0202,-0.0173,-0.0209,-0.0212,-0.0208,-0.0227,-0.0275,-0.033,-0.0291,-0.0292,-0.0324,-0.0384,-0.0457,-0.047,-0.033,-0.033,-0.0331,-0.04,0,-0.0169,-0.015,-0.017,-0.0139,-0.0123,-0.0142,-0.0127,-0.0123,-0.0127,-0.0105,-0.0152,-0.0133,-0.0193,-0.0179,-0.0237,-0.0295,-0.0343,-0.0312,-0.0364,-0.0366,-0.0434,-0.0478,-0.0404,-0.0465,-0.0406,-0.0407,-0.0407,0,-0.0129,-0.0122,-0.009,-0.0064,-0.0055,-0.0036,0.0005,0.0011,0.0014,0.0014,0.0002,-0.002,-0.008,-0.0133,-0.0254,-0.0228,-0.0306,-0.0377,-0.038,-0.0445,-0.045,-0.0443,-0.0478,-0.0417,-0.0416,-0.0416,-0.0415,0,-0.0071,-0.0057,-0.0024,-0.002,-0.0002,0.0031,0.0048,0.0064,0.0067,0.0093,0.0092,0.0054,0.0012,-0.0082,-0.0248,-0.0233,-0.0406,-0.0385,-0.0528,-0.0533,-0.048,-0.048,-0.0478,-0.0478,-0.0477,-0.0477,-0.0477,0,-0.0027,0.0005,0.0016,0.0038,0.0092,0.0102,0.0156,0.0171,0.018,0.0184,0.0161,0.0129,0.0012,-0.0103,-0.0221,-0.0415,-0.0376,-0.0545,-0.0563,-0.0485,-0.0485,-0.0442,-0.0437,-0.048,-0.0479,-0.0479,-0.0478,0,0.0023,0.0026,0.0068,0.0103,0.0118,0.0161,0.018,0.0211,0.0229,0.0227,0.0229,0.0161,0.0025,-0.0121,-0.0293,-0.0402,-0.0554,-0.0632,-0.0548,-0.0557,-0.066,-0.0655,-0.0754,-0.0758,-0.0761,-0.0763,-0.0765,0,0.0046,0.0078,0.0106,0.0117,0.0133,0.018,0.0201,0.0227,0.0237,0.0224,0.0212,0.0104,0.0022,-0.0257,-0.0428,-0.0618,-0.0658,-0.0715,-0.0685,-0.0685,-0.0692,-0.0682,-0.0673,-0.0611,-0.0612,-0.0612,-0.0613,0,0.0082,0.0095,0.0106,0.0125,0.0151,0.0181,0.0215,0.0228,0.025,0.0258,0.0232,0.0182,-0.0055,-0.0227,-0.0507,-0.0627,-0.0667,-0.0734,-0.0746,-0.0571,-0.0561,-0.0565,-0.0558,-0.0617,-0.0616,-0.0616,-0.0616,-0.0616,0.0087,0.0088,0.009,0.0111,0.0147,0.0189,0.0239,0.0264,0.0295,0.0338,0.0253,0.0218,-0.0001,-0.0313,-0.0525,-0.0715,-0.0728,-0.078,-0.0773,-0.0767,-0.0757,-0.0755,-0.0844,-0.0844,-0.0845,-0.0846,-0.0846,0,0.0058,0.0061,0.0073,0.01,0.0155,0.019,0.025,0.0306,0.0376,0.0382,0.0386,0.0199,-0.0006,-0.0242,-0.0506,-0.0713,-0.0661,-0.0781,-0.0655,-0.0651,-0.0648,-0.0627,-0.0682,-0.0682,-0.0682,-0.0681,0,0,0.0032,0.0005,0.0004,0.008,0.0156,0.0268,0.0333,0.0408,0.0444,0.0461,0.0459,0.0381,0.007,-0.0099,-0.0366,-0.0512,-0.0525,-0.0533,-0.0646,-0.0462,-0.0455,-0.0635,-0.0599,0,0,0,0,0]}],[{"header":{"parameterUnit":"m.s-1","parameterCategory":2,"la1":30.2991,"la2":30.254,"lo1":-89.0895,"lo2":-89.0444,"dy":0.0017,"dx":0.0017,"nx":28,"ny":28,"refTime":"2023-07-30T03:00:00:Z","depth":"4","parameterNumber":2,"parameterNumberName":"U-component_of_CURRENTS"},"data":[0,0,0,0,0,0,0,0,0,0,0,0,0,0,0,0,0,0,0,0,0,0,0,0,0,0,0,0,0,0,0,0,0,0,0,0,0,0,0,0,0,0,0,0,0,0,0,0,0,0,0,0,0,0,0,0,0,0,0.047,0.047,0,0.052,0.052,0.0521,0.0613,0.0614,0.0616,0.0618,0.0695,0.0696,0.0696,0,0,0,0,0,0,0,0,0,0,0,0,0,0.0387,0.0388,0.047,0.047,0.0471,0.052,0.052,0.0521,0.0612,0.0614,0.0617,0.0619,0.0695,0.0696,0.0696,0,0,0,0,0,0,0,0,0,0,0,0,0,0.0428,0.0389,0.0469,0.0522,0.0528,0.0519,0.052,0.0521,0.0612,0.0615,0.0617,0.062,0.0695,0.0696,0.0696,0.0647,0,0,0.0698,0.0698,0,0,0,0,0,0,0,0,0.0426,0.0431,0.0514,0.0519,0.0525,0.0563,0.052,0.0565,0.0611,0.058,0.0618,0.0621,0.0652,0.0656,0.0659,0.065,0.0654,0.0698,0.0699,0.0699,0.0699,0,0,0,0,0,0,0,0.0423,0.0429,0.0489,0.0514,0.0521,0.0521,0.053,0.0528,0.06,0.0583,0.059,0.0594,0.0655,0.0658,0.0662,0.0655,0.0698,0.0699,0.0699,0.0699,0.0727,0.0727,0,0,0,0,0,0,0.0418,0.0427,0.0488,0.0491,0.0481,0.0521,0.0531,0.0548,0.06,0.0611,0.0592,0.0599,0.0656,0.0661,0.0665,0.0724,0.0699,0.0699,0.07,0.0727,0.0727,0.0727,0,0,0,0,0,0,0.0416,0.0423,0.0486,0.0459,0.0467,0.052,0.0537,0.0547,0.0597,0.0607,0.0619,0.0637,0.0658,0.0664,0.0699,0.0724,0.07,0.07,0.0726,0.0727,0.0727,0.0768,0,0,0,0,0,0,0.0414,0.0422,0.0443,0.0459,0.0469,0.0508,0.0535,0.0546,0.0593,0.0603,0.0647,0.0655,0.0661,0.0698,0.07,0.0724,0.0701,0.0726,0.0726,0.0727,0.0767,0.077,0.0774,0,0,0,0,0,0.0411,0.0428,0.0444,0.0452,0.0493,0.0509,0.0514,0.0559,0.0593,0.0614,0.0647,0.0656,0.0704,0.0699,0.07,0.0726,0.0725,0.0726,0.0727,0.0765,0.077,0.0773,0,0,0,0,0,0,0.0404,0.0439,0.0458,0.0486,0.0508,0.0525,0.0552,0.0576,0.0617,0.0645,0.0658,0.0666,0.0704,0.0703,0.0697,0.0734,0.0716,0.0718,0.0745,0.0749,0.0752,0.0771,0.0701,0,0,0,0,0,0.0408,0.0435,0.0459,0.0484,0.0501,0.0532,0.055,0.0581,0.0611,0.0635,0.0663,0.0689,0.0697,0.0718,0.0724,0.0742,0.0739,0.0759,0.0763,0.0766,0.0781,0.0792,0.0798,0.073,0.073,0.073,0,0,0.0406,0.0434,0.0446,0.0484,0.0511,0.0533,0.0552,0.0595,0.0623,0.0632,0.0693,0.0702,0.0703,0.0728,0.0745,0.0741,0.0779,0.0767,0.077,0.0783,0.0793,0.08,0.0806,0.0731,0.0731,0.073,0,0,0.0409,0.045,0.0471,0.0495,0.0542,0.056,0.0581,0.0622,0.066,0.069,0.0711,0.0741,0.0753,0.077,0.0771,0.0794,0.0793,0.0798,0.084,0.085,0.0856,0.0861,0.085,0.0854,0.0806,0.0806,0.0806,0,0.0406,0.0449,0.0477,0.0505,0.0538,0.0577,0.061,0.0633,0.0683,0.0718,0.0719,0.0763,0.0768,0.0803,0.0815,0.0805,0.0805,0.0825,0.0856,0.0861,0.0866,0.0853,0.0858,0.0808,0.0808,0.0808,0.0807,0,0.0418,0.0465,0.0484,0.0537,0.0566,0.0609,0.0644,0.0692,0.0733,0.0755,0.081,0.081,0.0847,0.0842,0.0835,0.088,0.0865,0.0855,0.0849,0.0876,0.086,0.0863,0.0811,0.081,0.081,0.0809,0,0,0.0379,0.0475,0.0485,0.0525,0.0602,0.0619,0.0683,0.0744,0.078,0.0825,0.0866,0.0891,0.0918,0.0922,0.0925,0.0931,0.0953,0.0918,0.0917,0.0912,0.0969,0.0956,0.0957,0.0956,0.0957,0.0958,0.0939,0,0.039,0.0453,0.0503,0.0565,0.0607,0.0676,0.0714,0.0773,0.0815,0.0855,0.0892,0.0916,0.0939,0.095,0.0975,0.0951,0.0968,0.0959,0.0939,0.0938,0.0929,0.0963,0.0962,0.0942,0.0943,0.0943,0.0943,0,0.0388,0.0438,0.0515,0.0599,0.0622,0.0665,0.0756,0.0793,0.0863,0.0892,0.0959,0.0971,0.102,0.1004,0.1036,0.1034,0.1024,0.0996,0.0994,0.0975,0.0933,0.0912,0.095,0.0949,0.0949,0.0948,0.0948,0,0.0353,0.0441,0.0515,0.0547,0.064,0.0701,0.0751,0.0825,0.0854,0.0928,0.0945,0.1012,0.1032,0.1047,0.1049,0.1041,0.1047,0.1019,0.0999,0.0996,0.0994,0.0989,0.1042,0.1042,0.1042,0.1042,0.1042,0,0.0354,0.0402,0.051,0.0551,0.0606,0.0687,0.0747,0.0801,0.0869,0.0899,0.0975,0.0995,0.1045,0.1064,0.1057,0.1057,0.1073,0.102,0.1003,0.1008,0.1005,0.0995,0.099,0.1041,0.1042,0.1042,0.1042,0,0.0317,0.0396,0.046,0.0571,0.0602,0.0642,0.0733,0.0761,0.0843,0.0884,0.091,0.0988,0.103,0.1064,0.1065,0.1061,0.1045,0.104,0.1044,0.1025,0.0976,0.0973,0.1,0.1,0.0999,0.0999,0.0999,0,0.0309,0.0356,0.0451,0.0476,0.0542,0.061,0.0649,0.0741,0.0775,0.0872,0.0883,0.0954,0.1006,0.0997,0.1043,0.1051,0.1048,0.1031,0.1014,0.0998,0.0978,0.0975,0.0973,0.0998,0.0998,0.0998,0.0998,0,0.0288,0.0335,0.0376,0.0426,0.0481,0.0523,0.0602,0.0617,0.0727,0.0788,0.0841,0.0884,0.0936,0.0971,0.1007,0.1004,0.1033,0.1027,0.1027,0.101,0.0996,0.0976,0.0974,0.0997,0.0997,0.0997,0.0997,0,0.0259,0.0257,0.0315,0.0357,0.0408,0.0455,0.0495,0.0564,0.061,0.0738,0.0747,0.0841,0.0913,0.0947,0.0966,0.0989,0.0972,0.0934,0.0938,0.094,0.0939,0.0913,0.0887,0,0,0,0,0,0.0228,0.0218,0.0243,0.0288,0.0344,0.0388,0.047,0.052,0.0623,0.064,0.0702,0.0754,0.0826,0.0866,0.088,0.0948,0.0973,0.0961,0.0929,0.0991,0.0992,0.1003,0,0,0,0,0,0,0.0196,0.0202,0.0213,0.0242,0.0271,0.0332,0.039,0.046,0.0482,0.0585,0.062,0.0707,0.0776,0.0804,0.086,0.0878,0.0846,0.1023,0.1022,0.0991,0.0992,0.0993,0.1004,0,0,0,0,0]},{"header":{"parameterUnit":"m.s-1","parameterCategory":2,"la1":30.2991,"la2":30.254,"lo1":-89.0895,"lo2":-89.0444,"dy":0.0017,"dx":0.0017,"nx":28,"ny":28,"refTime":"2023-07-30T03:00:00:Z","depth":"4","parameterNumber":3,"parameterNumberName":"V-component_of_CURRENTS"},"data":[0,0,0,0,0,0,0,0,0,0,0,0,0,0,0,0,0,0,0,0,0,0,0,0,0,0,0,0,0,0,0,0,0,0,0,0,0,0,0,0,0,0,0,0,0,0,0,0,0,0,0,0,0,0,0,0,0,0,0.0033,0.0032,0,-0.0023,-0.0024,-0.0024,-0.0069,-0.0069,-0.007,-0.007,-0.0154,-0.0156,-0.0158,0,0,0,0,0,0,0,0,0,0,0,0,0,0.0104,0.0103,0.0033,0.0032,0.0031,-0.0023,-0.0024,-0.0025,-0.0069,-0.0069,-0.007,-0.007,-0.0154,-0.0156,-0.0158,0,0,0,0,0,0,0,0,0,0,0,0,0,0.0062,0.0102,0.0033,0.0003,0.0,-0.0023,-0.0024,-0.0025,-0.0069,-0.0069,-0.007,-0.007,-0.0153,-0.0156,-0.0158,-0.0164,0,0,-0.0167,-0.0168,0,0,0,0,0,0,0,0,0.0065,0.006,0.0008,0.0005,0.0002,-0.0039,-0.003,-0.0073,-0.0069,-0.0043,-0.007,-0.0071,-0.0117,-0.0123,-0.0133,-0.0168,-0.0172,-0.0167,-0.0169,-0.017,-0.0171,0,0,0,0,0,0,0,0.0068,0.0062,0.001,0.0008,0.0004,-0.0006,-0.0013,-0.0038,-0.0078,-0.0046,-0.0049,-0.0054,-0.012,-0.013,-0.0135,-0.0173,-0.0167,-0.017,-0.0171,-0.0173,-0.0281,-0.0282,0,0,0,0,0,0,0.0076,0.0064,0.0012,0.0008,0.0033,-0.0007,-0.0014,-0.0026,-0.0077,-0.0085,-0.0053,-0.0055,-0.0125,-0.0132,-0.0139,-0.019,-0.017,-0.0173,-0.0174,-0.0279,-0.0281,-0.0282,0,0,0,0,0,0,0.0078,0.0072,0.0014,0.0036,0.0028,-0.0007,-0.002,-0.0027,-0.0057,-0.0082,-0.0091,-0.0078,-0.0126,-0.0135,-0.0182,-0.0192,-0.0174,-0.0177,-0.0278,-0.028,-0.0282,-0.0267,0,0,0,0,0,0,0.008,0.0073,0.0059,0.0036,0.0027,-0.0008,-0.002,-0.0027,-0.0057,-0.0062,-0.0106,-0.0113,-0.0127,-0.0177,-0.0185,-0.0196,-0.0179,-0.0277,-0.0279,-0.0281,-0.0266,-0.0268,-0.027,0,0,0,0,0,0.0083,0.007,0.0059,0.0052,0.0013,-0.0008,-0.0014,-0.0041,-0.0058,-0.0071,-0.0108,-0.0113,-0.0196,-0.0181,-0.0189,-0.0201,-0.0276,-0.0278,-0.0281,-0.0265,-0.0268,-0.027,0,0,0,0,0,0,0.0084,0.0064,0.0051,0.0029,0.0009,-0.0016,-0.0032,-0.0051,-0.009,-0.0102,-0.0128,-0.0138,-0.0185,-0.02,-0.0182,-0.0241,-0.0237,-0.0241,-0.0222,-0.0225,-0.0227,-0.021,-0.0181,0,0,0,0,0,0.0082,0.0071,0.0047,0.0028,0.0018,-0.0011,-0.0027,-0.0046,-0.0078,-0.0097,-0.0129,-0.0167,-0.0199,-0.0217,-0.025,-0.028,-0.0306,-0.0295,-0.0297,-0.0298,-0.0292,-0.0352,-0.0359,-0.0291,-0.0291,-0.0291,0,0,0.0077,0.0064,0.0056,0.0028,0.0009,0.0002,-0.0023,-0.0051,-0.0062,-0.0099,-0.0139,-0.0179,-0.0211,-0.0248,-0.0269,-0.0262,-0.0333,-0.0302,-0.0302,-0.0295,-0.0356,-0.0362,-0.0368,-0.0293,-0.0292,-0.0292,0,0,0.0085,0.005,0.0055,0.0039,0.0012,-0.0006,-0.0017,-0.0054,-0.0079,-0.0114,-0.015,-0.0198,-0.0242,-0.027,-0.0286,-0.0319,-0.0346,-0.0336,-0.0325,-0.0384,-0.0389,-0.0395,-0.0439,-0.0448,-0.0331,-0.0331,-0.0331,0,0.0079,0.007,0.0051,0.0053,0.0025,-0.0008,-0.0023,-0.0036,-0.0087,-0.0131,-0.0125,-0.0231,-0.0246,-0.0305,-0.0301,-0.0321,-0.0359,-0.0308,-0.0385,-0.039,-0.0396,-0.044,-0.045,-0.033,-0.033,-0.033,-0.033,0,0.0107,0.0082,0.0077,0.0068,0.0044,0.0014,-0.0008,-0.0048,-0.0086,-0.0117,-0.02,-0.0228,-0.0304,-0.0302,-0.0297,-0.0356,-0.0372,-0.0383,-0.0373,-0.0402,-0.0447,-0.0458,-0.033,-0.033,-0.033,-0.033,0,0,0.0114,0.0098,0.0092,0.0057,0.003,-0.0002,-0.0021,-0.0083,-0.0133,-0.0167,-0.0241,-0.0268,-0.032,-0.0341,-0.0366,-0.0378,-0.0428,-0.0384,-0.0387,-0.0416,-0.0558,-0.0465,-0.0468,-0.046,-0.0462,-0.0463,-0.0574,0,0.0122,0.0105,0.0104,0.0056,0.0018,-0.0025,-0.005,-0.0106,-0.0157,-0.0227,-0.0272,-0.0344,-0.0324,-0.0375,-0.0388,-0.0429,-0.0457,-0.0396,-0.0536,-0.0539,-0.0443,-0.0477,-0.0469,-0.0582,-0.0585,-0.0587,-0.0588,0,0.0138,0.0107,0.0061,-0.0016,-0.0034,-0.0063,-0.0177,-0.0198,-0.0277,-0.0317,-0.0394,-0.0431,-0.0484,-0.045,-0.0536,-0.0506,-0.053,-0.0536,-0.0542,-0.0463,-0.0465,-0.055,-0.0608,-0.0607,-0.0605,-0.0604,-0.0603,0,0.0093,0.0063,0.0,-0.0022,-0.0086,-0.0144,-0.019,-0.0264,-0.0275,-0.0403,-0.0411,-0.0526,-0.0546,-0.0618,-0.06,-0.0603,-0.0656,-0.0686,-0.0629,-0.0624,-0.0681,-0.0674,-0.0747,-0.0747,-0.0746,-0.0746,-0.0746,0,0.0056,0.0005,-0.004,-0.009,-0.016,-0.021,-0.0279,-0.034,-0.0383,-0.0378,-0.0477,-0.0462,-0.0577,-0.0597,-0.0639,-0.0644,-0.0713,-0.0628,-0.0646,-0.0673,-0.0664,-0.0689,-0.068,-0.075,-0.0749,-0.0749,-0.0748,0,-0.0014,-0.0026,-0.01,-0.0178,-0.019,-0.0265,-0.0275,-0.0295,-0.0363,-0.0354,-0.0384,-0.0424,-0.0471,-0.0544,-0.0634,-0.0651,-0.0704,-0.0684,-0.0687,-0.0704,-0.0639,-0.0629,-0.0703,-0.0701,-0.0699,-0.0697,-0.0696,0,-0.0061,-0.0109,-0.016,-0.0149,-0.0191,-0.0252,-0.0243,-0.0297,-0.0279,-0.0285,-0.0256,-0.0304,-0.033,-0.0398,-0.05,-0.0638,-0.0616,-0.0679,-0.0673,-0.0624,-0.0636,-0.0629,-0.0622,-0.0692,-0.0692,-0.0691,-0.0691,0,-0.0152,-0.0162,-0.0194,-0.0175,-0.0173,-0.0155,-0.0162,-0.0135,-0.0157,-0.0177,-0.0138,-0.0194,-0.0216,-0.0333,-0.0416,-0.0502,-0.0679,-0.0659,-0.0665,-0.066,-0.0612,-0.0624,-0.0619,-0.0684,-0.0685,-0.0686,-0.0686,0,-0.0194,-0.0201,-0.0192,-0.0178,-0.0139,-0.0088,-0.0094,-0.0047,-0.004,-0.0046,-0.0013,-0.0086,-0.014,-0.0254,-0.0326,-0.0416,-0.0453,-0.05,-0.0516,-0.0525,-0.042,-0.033,-0.0331,0,0,0,0,0,-0.0229,-0.0194,-0.0167,-0.0131,-0.0089,-0.0079,-0.0022,-0.0014,-0.001,0.004,0.0005,-0.0019,-0.0125,-0.0175,-0.025,-0.031,-0.0485,-0.0401,-0.0551,-0.0645,-0.0653,-0.0549,0,0,0,0,0,0,-0.0233,-0.0204,-0.0167,-0.0096,-0.0064,-0.0017,0.0009,0.0022,0.0044,0.0041,-0.001,-0.0042,-0.015,-0.0091,-0.0257,-0.0284,-0.0387,-0.046,-0.0461,-0.064,-0.0648,-0.0654,-0.055,0,0,0,0,0]}]]